User: anonymous   Login
Location: Young's Pond
(41.2695°N, 72.7766°W)
Time: 00:00:39
(UTC-04:00)
Language:

Spot 4 - Orbit

View from above orbital plane
View from above orbital plane
View from above satellite
View from above satellite

Ground track
Ground track

The orbit data is extracted from the following two-line orbital elements,

1 25260U 98017A   15147.20985595  .00000180  00000-0  54381-4 0  9995
2 25260 098.4169 218.3821 0014149 065.5313 294.7358 14.53269252892625
Epoch (UTC): 27 May 2015 05:02:11
Eccentricity: 0.0014149
inclination: 98.4169°
perigee height: 705 km
apogee height: 725 km
right ascension of ascending node: 218.3821°
argument of perigee: 65.5313°
revolutions per day: 14.53269252
mean anomaly at epoch: 294.7358°
orbit number at epoch: 89262

The dashed part of the orbit path shows where the satellite is in the earth's shadow,  

DLR